LVCTT SANE-SASA

Flight info

Callsign LVCTT
Flight time 0h 59m
Altitude 18000
Route TRH DCT TUC/N0238F190 W3 ILPAR ILPAR2N
Aircraft B58T/L-SDFGRY/C

Departure

Time 2026-05-06 02:14
Airport Vicecomodoro Angel D. La Paz Aragonés Airport (SANE)

Arrival

Time 2026-05-06 03:13
Airport Martín Miguel de Güemes International Airport (SASA)
Time Latitude Longitude Altitude Speed Heading
2026-05-06 01:59 -27.75616 -64.29944 658 ft 0 kts 145°
2026-05-06 02:10 -27.75618 -64.29943 658 ft 1 kts 144°
2026-05-06 02:10 -27.75626 -64.29943 658 ft 3 kts 207°
2026-05-06 02:10 -27.75638 -64.29982 658 ft 8 kts 249°
2026-05-06 02:10 -27.75654 -64.30017 661 ft 9 kts 229°
2026-05-06 02:11 -27.75686 -64.30151 663 ft 22 kts 253°
2026-05-06 02:11 -27.75718 -64.30270 663 ft 13 kts 252°
2026-05-06 02:11 -27.75745 -64.30357 663 ft 11 kts 249°
2026-05-06 02:11 -27.75771 -64.30426 662 ft 9 kts 241°
2026-05-06 02:12 -27.75800 -64.30477 662 ft 7 kts 235°
2026-05-06 02:12 -27.75833 -64.30529 662 ft 14 kts 228°
2026-05-06 02:12 -27.75963 -64.30640 661 ft 34 kts 207°
2026-05-06 02:12 -27.76212 -64.30786 662 ft 45 kts 209°
2026-05-06 02:13 -27.76509 -64.30961 663 ft 52 kts 208°
2026-05-06 02:13 -27.76834 -64.31156 661 ft 53 kts 208°
2026-05-06 02:13 -27.77143 -64.31343 661 ft 38 kts 208°
2026-05-06 02:13 -27.77261 -64.31417 663 ft 10 kts 144°
2026-05-06 02:14 -27.77229 -64.31387 662 ft 8 kts 29°
2026-05-06 02:14 -27.76991 -64.31245 661 ft 85 kts 27°
2026-05-06 02:14 -27.76324 -64.30819 920 ft 122 kts 33°
2026-05-06 02:14 -27.75529 -64.30337 1373 ft 134 kts 25°
2026-05-06 02:15 -27.74660 -64.29993 1972 ft 133 kts 15°
2026-05-06 02:15 -27.73741 -64.29857 2493 ft 137 kts 345°
2026-05-06 02:15 -27.73005 -64.30477 3017 ft 127 kts 320°
2026-05-06 02:15 -27.72408 -64.31129 3514 ft 112 kts 321°
2026-05-06 02:16 -27.71929 -64.31767 3997 ft 107 kts 299°
2026-05-06 02:16 -27.71652 -64.32622 4340 ft 127 kts 299°
2026-05-06 02:16 -27.71304 -64.33582 4614 ft 137 kts 298°
2026-05-06 02:16 -27.70940 -64.34600 4889 ft 142 kts 297°
2026-05-06 02:17 -27.70569 -64.35645 5156 ft 147 kts 298°
2026-05-06 02:17 -27.70180 -64.36727 5421 ft 150 kts 298°
2026-05-06 02:17 -27.69784 -64.37828 5682 ft 153 kts 298°
2026-05-06 02:17 -27.69382 -64.38946 5936 ft 154 kts 298°
2026-05-06 02:18 -27.68979 -64.40076 6195 ft 156 kts 298°
2026-05-06 02:18 -27.68573 -64.41212 6449 ft 156 kts 299°
2026-05-06 02:18 -27.68160 -64.42352 6700 ft 157 kts 299°
2026-05-06 02:18 -27.67745 -64.43501 6950 ft 158 kts 298°
2026-05-06 02:19 -27.67329 -64.44654 7201 ft 159 kts 299°
2026-05-06 02:19 -27.66912 -64.45814 7452 ft 160 kts 298°
2026-05-06 02:19 -27.66492 -64.46979 7705 ft 161 kts 299°
2026-05-06 02:19 -27.66071 -64.48151 7953 ft 162 kts 298°
2026-05-06 02:20 -27.65217 -64.50519 8455 ft 164 kts 298°
2026-05-06 02:20 -27.64787 -64.51711 8705 ft 165 kts 298°
2026-05-06 02:20 -27.64356 -64.52903 8955 ft 163 kts 298°
2026-05-06 02:21 -27.63945 -64.54048 9193 ft 160 kts 298°
2026-05-06 02:21 -27.63524 -64.55217 9441 ft 161 kts 298°
2026-05-06 02:21 -27.63099 -64.56390 9690 ft 162 kts 297°
2026-05-06 02:21 -27.62672 -64.57571 9940 ft 163 kts 297°
2026-05-06 02:22 -27.62241 -64.58762 10190 ft 164 kts 296°
2026-05-06 02:22 -27.61810 -64.59956 10440 ft 165 kts 296°
2026-05-06 02:22 -27.61377 -64.61157 10691 ft 166 kts 295°
2026-05-06 02:22 -27.60941 -64.62360 10940 ft 166 kts 295°
2026-05-06 02:23 -27.60501 -64.63572 11191 ft 167 kts 294°
2026-05-06 02:23 -27.60062 -64.64785 11440 ft 168 kts 294°
2026-05-06 02:23 -27.59620 -64.66008 11691 ft 169 kts 294°
2026-05-06 02:23 -27.59176 -64.67236 11941 ft 169 kts 293°
2026-05-06 02:24 -27.58730 -64.68467 12191 ft 170 kts 293°
2026-05-06 02:24 -27.58285 -64.69703 12352 ft 176 kts 293°
2026-05-06 02:24 -27.57815 -64.70993 12486 ft 180 kts 293°
2026-05-06 02:24 -27.57336 -64.72315 12622 ft 184 kts 292°
2026-05-06 02:25 -27.56847 -64.73658 12756 ft 187 kts 293°
2026-05-06 02:25 -27.56354 -64.75019 12889 ft 188 kts 292°
2026-05-06 02:25 -27.55858 -64.76384 13020 ft 189 kts 292°
2026-05-06 02:25 -27.55361 -64.77758 13148 ft 189 kts 292°
2026-05-06 02:26 -27.54860 -64.79130 13275 ft 190 kts 292°
2026-05-06 02:26 -27.54358 -64.80505 13402 ft 190 kts 292°
2026-05-06 02:26 -27.53858 -64.81882 13528 ft 190 kts 292°
2026-05-06 02:26 -27.53361 -64.83261 13654 ft 190 kts 292°
2026-05-06 02:27 -27.52859 -64.84637 13779 ft 190 kts 292°
2026-05-06 02:27 -27.52226 -64.85933 13901 ft 190 kts 312°
2026-05-06 02:27 -27.51113 -64.86712 14027 ft 191 kts 343°
2026-05-06 02:27 -27.49814 -64.86952 14158 ft 191 kts 348°
2026-05-06 02:28 -27.48524 -64.87318 14287 ft 191 kts 341°
2026-05-06 02:28 -27.47257 -64.87787 14415 ft 191 kts 340°
2026-05-06 02:28 -27.45995 -64.88264 14540 ft 192 kts 340°
2026-05-06 02:28 -27.44713 -64.88741 14670 ft 196 kts 340°
2026-05-06 02:29 -27.43402 -64.89226 14802 ft 199 kts 340°
2026-05-06 02:29 -27.42077 -64.89712 14933 ft 202 kts 340°
2026-05-06 02:29 -27.40739 -64.90209 15063 ft 203 kts 340°
2026-05-06 02:29 -27.39391 -64.90709 15188 ft 204 kts 340°
2026-05-06 02:30 -27.38038 -64.91206 15319 ft 205 kts 340°
2026-05-06 02:30 -27.36677 -64.91708 15446 ft 206 kts 339°
2026-05-06 02:30 -27.35335 -64.92203 15751 ft 198 kts 339°
2026-05-06 02:30 -27.34055 -64.92675 16118 ft 190 kts 339°
2026-05-06 02:31 -27.32816 -64.93133 16477 ft 185 kts 338°
2026-05-06 02:31 -27.31606 -64.93579 16837 ft 181 kts 338°
2026-05-06 02:31 -27.30418 -64.94018 17200 ft 178 kts 338°
2026-05-06 02:31 -27.29245 -64.94450 17565 ft 176 kts 337°
2026-05-06 02:32 -27.28081 -64.94879 17885 ft 179 kts 337°
2026-05-06 02:32 -27.26844 -64.95340 17901 ft 195 kts 337°
2026-05-06 02:32 -27.25509 -64.95831 17908 ft 207 kts 338°
2026-05-06 02:32 -27.24128 -64.96337 17909 ft 215 kts 338°
2026-05-06 02:33 -27.22681 -64.96869 17907 ft 222 kts 338°
2026-05-06 02:33 -27.21682 -64.97237 17907 ft 225 kts 338°
2026-05-06 02:33 -27.18175 -64.98525 17917 ft 231 kts 338°
2026-05-06 02:34 -27.16644 -64.99089 17918 ft 232 kts 338°
2026-05-06 02:34 -27.15106 -64.99653 17917 ft 233 kts 338°
2026-05-06 02:34 -27.13559 -65.00208 17920 ft 234 kts 338°
2026-05-06 02:34 -27.12012 -65.00778 17921 ft 234 kts 338°
2026-05-06 02:35 -27.10467 -65.01354 17920 ft 234 kts 338°
2026-05-06 02:35 -27.08919 -65.01927 17923 ft 234 kts 338°
2026-05-06 02:35 -27.07366 -65.02497 17924 ft 235 kts 338°
2026-05-06 02:35 -27.05816 -65.03064 17922 ft 234 kts 338°
2026-05-06 02:36 -27.04266 -65.03634 17924 ft 234 kts 338°
2026-05-06 02:36 -27.02716 -65.04202 17928 ft 234 kts 338°
2026-05-06 02:36 -27.01166 -65.04770 17928 ft 234 kts 338°
2026-05-06 02:36 -26.99617 -65.05338 17928 ft 234 kts 338°
2026-05-06 02:37 -26.98087 -65.05899 17928 ft 234 kts 338°
2026-05-06 02:37 -26.96535 -65.06467 17928 ft 234 kts 338°
2026-05-06 02:37 -26.94985 -65.07035 17928 ft 234 kts 338°
2026-05-06 02:37 -26.93437 -65.07602 17929 ft 234 kts 338°
2026-05-06 02:38 -26.91886 -65.08170 17936 ft 234 kts 338°
2026-05-06 02:38 -26.90347 -65.08733 17922 ft 222 kts 338°
2026-05-06 02:38 -26.88902 -65.09258 17928 ft 221 kts 338°
2026-05-06 02:38 -26.87422 -65.09802 17927 ft 226 kts 338°
2026-05-06 02:39 -26.85910 -65.10355 17933 ft 230 kts 338°
2026-05-06 02:39 -26.84356 -65.10836 17933 ft 236 kts 348°
2026-05-06 02:39 -26.82701 -65.10874 17942 ft 240 kts 358°
2026-05-06 02:39 -26.81027 -65.10803 17944 ft 241 kts 357°
2026-05-06 02:40 -26.79347 -65.10775 17944 ft 242 kts 356°
2026-05-06 02:40 -26.77663 -65.10754 17944 ft 242 kts 356°
2026-05-06 02:40 -26.75997 -65.10728 17944 ft 243 kts 356°
2026-05-06 02:40 -26.74305 -65.10699 17944 ft 243 kts 356°
2026-05-06 02:41 -26.72615 -65.10675 17944 ft 243 kts 356°
2026-05-06 02:41 -26.70918 -65.10652 17945 ft 244 kts 356°
2026-05-06 02:41 -26.69223 -65.10629 17946 ft 244 kts 356°
2026-05-06 02:41 -26.67525 -65.10604 17946 ft 244 kts 356°
2026-05-06 02:42 -26.65824 -65.10580 17946 ft 244 kts 356°
2026-05-06 02:42 -26.64127 -65.10556 17946 ft 244 kts 356°
2026-05-06 02:42 -26.62431 -65.10532 17946 ft 244 kts 356°
2026-05-06 02:42 -26.60732 -65.10510 17946 ft 244 kts 356°
2026-05-06 02:43 -26.59036 -65.10485 17945 ft 244 kts 357°
2026-05-06 02:43 -26.57339 -65.10459 17945 ft 244 kts 356°
2026-05-06 02:43 -26.55644 -65.10437 17943 ft 243 kts 356°
2026-05-06 02:43 -26.53953 -65.10426 17946 ft 243 kts 356°
2026-05-06 02:44 -26.52262 -65.10406 17945 ft 243 kts 356°
2026-05-06 02:44 -26.50573 -65.10364 17944 ft 243 kts 357°
2026-05-06 02:44 -26.48883 -65.10324 17945 ft 243 kts 356°
2026-05-06 02:44 -26.47762 -65.10315 17945 ft 243 kts 356°
2026-05-06 02:45 -26.46076 -65.10306 17943 ft 243 kts 356°
2026-05-06 02:45 -26.44388 -65.10285 17939 ft 242 kts 356°
2026-05-06 02:45 -26.42712 -65.10256 17934 ft 241 kts 357°
2026-05-06 02:45 -26.41041 -65.10229 17938 ft 240 kts 356°
2026-05-06 02:46 -26.39371 -65.10207 17941 ft 241 kts 356°
2026-05-06 02:46 -26.37688 -65.10188 17944 ft 242 kts 356°
2026-05-06 02:46 -26.35994 -65.10165 17946 ft 244 kts 356°
2026-05-06 02:46 -26.34294 -65.10140 17947 ft 244 kts 356°
2026-05-06 02:47 -26.32593 -65.10116 17948 ft 245 kts 356°
2026-05-06 02:47 -26.30910 -65.10093 17949 ft 245 kts 356°
2026-05-06 02:47 -26.29205 -65.10069 17950 ft 245 kts 356°
2026-05-06 02:47 -26.27497 -65.10045 17950 ft 245 kts 356°
2026-05-06 02:48 -26.25789 -65.10021 17950 ft 245 kts 356°
2026-05-06 02:48 -26.24085 -65.09997 17951 ft 245 kts 356°
2026-05-06 02:48 -26.22380 -65.09974 17955 ft 245 kts 356°
2026-05-06 02:48 -26.20674 -65.09950 17954 ft 245 kts 356°
2026-05-06 02:49 -26.18971 -65.09927 17954 ft 245 kts 356°
2026-05-06 02:49 -26.17272 -65.09903 17954 ft 245 kts 356°
2026-05-06 02:49 -26.15570 -65.09879 17954 ft 244 kts 356°
2026-05-06 02:49 -26.13870 -65.09855 17954 ft 244 kts 356°
2026-05-06 02:50 -26.12173 -65.09832 17954 ft 244 kts 356°
2026-05-06 02:50 -26.10476 -65.09808 17960 ft 244 kts 356°
2026-05-06 02:50 -26.08779 -65.09785 17964 ft 244 kts 356°
2026-05-06 02:50 -26.07082 -65.09761 17961 ft 244 kts 356°
2026-05-06 02:51 -26.05367 -65.09739 17811 ft 247 kts 356°
2026-05-06 02:51 -26.03677 -65.09716 17633 ft 246 kts 357°
2026-05-06 02:51 -26.01960 -65.09692 17433 ft 246 kts 357°
2026-05-06 02:51 -26.00246 -65.09666 17226 ft 246 kts 357°
2026-05-06 02:52 -25.98512 -65.09643 17033 ft 246 kts 358°
2026-05-06 02:52 -25.96804 -65.09620 16832 ft 245 kts 358°
2026-05-06 02:52 -25.95098 -65.09596 16631 ft 245 kts 358°
2026-05-06 02:52 -25.93398 -65.09573 16431 ft 244 kts 358°
2026-05-06 02:53 -25.91701 -65.09549 16230 ft 243 kts 358°
2026-05-06 02:53 -25.90036 -65.09525 16032 ft 242 kts 358°
2026-05-06 02:53 -25.88352 -65.09502 15831 ft 241 kts 358°
2026-05-06 02:53 -25.86677 -65.09481 15630 ft 240 kts 359°
2026-05-06 02:54 -25.85011 -65.09457 15430 ft 239 kts 359°
2026-05-06 02:54 -25.83344 -65.09433 15229 ft 239 kts 359°
2026-05-06 02:54 -25.81683 -65.09411 15028 ft 238 kts 359°
2026-05-06 02:54 -25.80047 -65.09389 14991 ft 231 kts 359°
2026-05-06 02:55 -25.78459 -65.09366 14992 ft 225 kts 359°
2026-05-06 02:55 -25.76905 -65.09346 14988 ft 221 kts 359°
2026-05-06 02:55 -25.75374 -65.09325 14987 ft 219 kts 359°
2026-05-06 02:55 -25.73843 -65.09303 14989 ft 222 kts 359°
2026-05-06 02:56 -25.72310 -65.09279 14991 ft 223 kts 359°
2026-05-06 02:56 -25.70750 -65.09258 14992 ft 225 kts 359°
2026-05-06 02:56 -25.69215 -65.09509 14989 ft 224 kts 340°
2026-05-06 02:56 -25.67772 -65.10143 15001 ft 222 kts 336°
2026-05-06 02:57 -25.66345 -65.10805 15005 ft 223 kts 334°
2026-05-06 02:57 -25.65013 -65.11684 14960 ft 224 kts 325°
2026-05-06 02:57 -25.63713 -65.12655 14813 ft 227 kts 326°
2026-05-06 02:57 -25.62354 -65.13579 14672 ft 230 kts 328°
2026-05-06 02:58 -25.60962 -65.14487 14528 ft 234 kts 328°
2026-05-06 02:58 -25.59561 -65.15416 14380 ft 236 kts 328°
2026-05-06 02:58 -25.58154 -65.16359 14234 ft 236 kts 328°
2026-05-06 02:58 -25.56745 -65.17298 14087 ft 237 kts 328°
2026-05-06 02:59 -25.55345 -65.18229 13940 ft 238 kts 328°
2026-05-06 02:59 -25.53911 -65.19189 13790 ft 238 kts 328°
2026-05-06 02:59 -25.52509 -65.20124 13644 ft 238 kts 329°
2026-05-06 02:59 -25.51086 -65.21067 13493 ft 238 kts 329°
2026-05-06 03:00 -25.49664 -65.22013 13342 ft 238 kts 329°
2026-05-06 03:00 -25.48246 -65.22957 13193 ft 238 kts 329°
2026-05-06 03:00 -25.46828 -65.23901 13039 ft 237 kts 329°
2026-05-06 03:00 -25.45412 -65.24842 12893 ft 237 kts 329°
2026-05-06 03:01 -25.43996 -65.25782 12742 ft 237 kts 329°
2026-05-06 03:01 -25.42590 -65.26718 12591 ft 236 kts 329°
2026-05-06 03:01 -25.41183 -65.27655 12440 ft 236 kts 329°
2026-05-06 03:01 -25.39778 -65.28590 12290 ft 235 kts 330°
2026-05-06 03:02 -25.38376 -65.29521 12139 ft 235 kts 329°
2026-05-06 03:02 -25.36977 -65.30448 12033 ft 233 kts 330°
2026-05-06 03:02 -25.35605 -65.31359 12029 ft 227 kts 330°
2026-05-06 03:02 -25.34256 -65.32254 12024 ft 225 kts 330°
2026-05-06 03:03 -25.32921 -65.33141 12025 ft 223 kts 330°
2026-05-06 03:03 -25.31588 -65.34027 12030 ft 222 kts 330°
2026-05-06 03:03 -25.30269 -65.34903 12026 ft 221 kts 330°
2026-05-06 03:03 -25.28952 -65.35774 12027 ft 220 kts 330°
2026-05-06 03:04 -25.27642 -65.36644 12026 ft 220 kts 330°
2026-05-06 03:04 -25.26325 -65.37514 12027 ft 220 kts 330°
2026-05-06 03:04 -25.25014 -65.38380 12027 ft 220 kts 330°
2026-05-06 03:04 -25.23705 -65.39250 12028 ft 219 kts 330°
2026-05-06 03:05 -25.22399 -65.40116 12023 ft 219 kts 330°
2026-05-06 03:05 -25.21088 -65.40984 11829 ft 221 kts 330°
2026-05-06 03:05 -25.19790 -65.41847 11453 ft 215 kts 330°
2026-05-06 03:05 -25.18523 -65.42687 11075 ft 210 kts 330°
2026-05-06 03:06 -25.17281 -65.43507 10697 ft 207 kts 330°
2026-05-06 03:06 -25.16052 -65.44318 10321 ft 205 kts 330°
2026-05-06 03:06 -25.14837 -65.45113 9942 ft 202 kts 330°
2026-05-06 03:06 -25.13635 -65.45893 9569 ft 199 kts 331°
2026-05-06 03:07 -25.12453 -65.46662 9194 ft 196 kts 331°
2026-05-06 03:07 -25.11283 -65.47424 8820 ft 194 kts 331°
2026-05-06 03:07 -25.10133 -65.48175 8444 ft 191 kts 331°
2026-05-06 03:07 -25.08994 -65.48917 8068 ft 189 kts 331°
2026-05-06 03:08 -25.07863 -65.49653 7696 ft 188 kts 331°
2026-05-06 03:08 -25.06737 -65.50389 7319 ft 190 kts 331°
2026-05-06 03:08 -25.05587 -65.51135 6949 ft 194 kts 332°
2026-05-06 03:08 -25.04431 -65.51886 6750 ft 188 kts 331°
2026-05-06 03:09 -25.03272 -65.52397 6732 ft 175 kts 354°
2026-05-06 03:09 -25.02072 -65.52451 6636 ft 174 kts 359°
2026-05-06 03:09 -25.00851 -65.52433 6432 ft 177 kts 13°
2026-05-06 03:09 -24.99733 -65.51856 6235 ft 178 kts 21°
2026-05-06 03:10 -24.98550 -65.51503 6160 ft 173 kts 13°
2026-05-06 03:10 -24.97399 -65.51226 6108 ft 172 kts 12°
2026-05-06 03:10 -24.96221 -65.50955 5893 ft 167 kts 12°
2026-05-06 03:10 -24.95081 -65.50712 5671 ft 171 kts 13°
2026-05-06 03:11 -24.93899 -65.50447 5444 ft 175 kts 10°
2026-05-06 03:11 -24.92768 -65.50200 5216 ft 155 kts
2026-05-06 03:11 -24.91773 -65.49981 5023 ft 141 kts 11°
2026-05-06 03:11 -24.90838 -65.49761 4841 ft 136 kts
2026-05-06 03:12 -24.89870 -65.49569 4658 ft 143 kts 10°
2026-05-06 03:12 -24.88906 -65.49348 4467 ft 141 kts
2026-05-06 03:12 -24.87987 -65.49152 4272 ft 126 kts 11°
2026-05-06 03:12 -24.87162 -65.48966 4109 ft 114 kts 10°
2026-05-06 03:13 -24.86456 -65.48813 4077 ft 92 kts
2026-05-06 03:13 -24.85895 -65.48689 4063 ft 71 kts 13°
2026-05-06 03:13 -24.85487 -65.48599 4057 ft 50 kts
2026-05-06 03:13 -24.85190 -65.48538 4051 ft 38 kts 14°
2026-05-06 03:14 -24.84954 -65.48488 4047 ft 32 kts 11°
2026-05-06 03:14 -24.84749 -65.48440 4043 ft 29 kts 11°
2026-05-06 03:14 -24.84607 -65.48319 4040 ft 13 kts 65°
2026-05-06 03:14 -24.84584 -65.48250 4039 ft 11 kts 80°
2026-05-06 03:15 -24.84558 -65.48154 4036 ft 15 kts 73°
2026-05-06 03:15 -24.84523 -65.48038 4031 ft 14 kts 69°
2026-05-06 03:15 -24.84475 -65.47964 4027 ft 7 kts
2026-05-06 03:15 -24.84454 -65.47941 4026 ft 3 kts 100°
2026-05-06 03:16 -24.84457 -65.47930 4025 ft 1 kts 140°
2026-05-06 03:16 -24.84460 -65.47928 4025 ft 0 kts 144°